This is the latest recevied weather packets stored in our database for station/object K7FLA. If no packets are shown the sender has not sent any weather packets the latest 10 day(s).
| Time | Temp. | Humidity | Pressure | Rain* | Wind** | Luminosity | Snow |
|---|---|---|---|---|---|---|---|
| 1788320177 | 21.67° C | 31% | 1096.1 hPa | 0 mm | - | 0 W/m² | - |
| 1788319873 | 21.67° C | 31% | 1096.2 hPa | 0 mm | - | 0 W/m² | - |
| 1788319571 | 21.67° C | 30% | 1096.1 hPa | 0 mm | - | 0 W/m² | - |
| 1788319266 | 22.22° C | 27% | 1096 hPa | 0 mm | - | 0 W/m² | - |
| 1788318960 | 22.22° C | 27% | 1096.1 hPa | 0 mm | - | 0 W/m² | - |
| 1788318658 | 22.22° C | 26% | 1095.9 hPa | 0 mm | - | 0 W/m² | - |
| 1788318358 | 22.78° C | 28% | 1095.9 hPa | 0 mm | - | 0 W/m² | - |
| 1788318057 | 22.78° C | 28% | 1095.7 hPa | 0 mm | - | 0 W/m² | - |
| 1788317757 | 23.33° C | 28% | 1095.7 hPa | 0 mm | - | 0 W/m² | - |
| 1788317453 | 23.33° C | 28% | 1095.9 hPa | 0 mm | - | 0 W/m² | - |
| 1788317148 | 23.33° C | 29% | 1095.7 hPa | 0 mm | - | 0 W/m² | - |
| 1788316848 | 23.33° C | 29% | 1095.4 hPa | 0 mm | - | 0 W/m² | - |
| 1788316539 | 23.89° C | 29% | 1095.4 hPa | 0 mm | - | 0 W/m² | - |
| 1788316233 | 23.89° C | 28% | 1095.5 hPa | 0 mm | - | 0 W/m² | - |
| 1788315928 | 24.44° C | 30% | 1095.5 hPa | 0 mm | - | 1 W/m² | - |
| 1788315624 | 25° C | 32% | 1095.3 hPa | 0 mm | - | 2 W/m² | - |
| 1788315319 | 25° C | 26% | 1095.3 hPa | 0 mm | - | 3 W/m² | - |
| 1788315014 | 25° C | 24% | 1095.3 hPa | 0 mm | - | 6 W/m² | - |
| 1788314710 | 25.56° C | 23% | 1095.3 hPa | 0 mm | - | 8 W/m² | - |
| 1788314405 | 25.56° C | 22% | 1095.4 hPa | 0 mm | - | 11 W/m² | - |
| 1788314100 | 26.11° C | 22% | 1095.4 hPa | 0 mm | - | 14 W/m² | - |
| 1788313796 | 26.11° C | 22% | 1095.5 hPa | 0 mm | - | 17 W/m² | - |
| 1788313492 | 26.67° C | 23% | 1095.4 hPa | 0 mm | - | 20 W/m² | - |
| 1788313193 | 26.67° C | 24% | 1095.3 hPa | 0 mm | - | 22 W/m² | - |
| 1788312887 | 26.67° C | 24% | 1095.4 hPa | 0 mm | - | 24 W/m² | - |
* Rain latest hour (hover to see other rain measurements)
** Current wind speed in m/s (hover to see current wind gust speed)